TimeEST,TemperatureF,Dew PointF,Humidity,Sea Level PressureIn,VisibilityMPH,Wind Direction,Wind SpeedMPH,Gust SpeedMPH,PrecipitationIn,Events,Conditions,WindDirDegrees,DateUTC
12:53 AM,63.0,57.9,84,30.16,10.0,NE,5.8,-,N/A,,Mostly Cloudy,50,2012-12-05 05:53:00
1:53 AM,61.0,57.9,90,30.14,10.0,NE,5.8,-,N/A,,Clear,50,2012-12-05 06:53:00
2:53 AM,62.1,59.0,90,30.13,10.0,NNE,3.5,-,N/A,,Clear,30,2012-12-05 07:53:00
3:53 AM,60.1,59.0,96,30.12,10.0,NE,3.5,-,N/A,,Clear,50,2012-12-05 08:53:00
4:53 AM,61.0,59.0,93,30.11,10.0,Calm,Calm,-,N/A,,Clear,0,2012-12-05 09:53:00
5:53 AM,61.0,59.0,93,30.11,10.0,NE,4.6,-,N/A,,Clear,40,2012-12-05 10:53:00
6:53 AM,60.1,59.0,96,30.12,10.0,NNE,3.5,-,N/A,,Clear,30,2012-12-05 11:53:00
7:53 AM,63.0,61.0,93,30.14,10.0,ENE,3.5,-,N/A,,Overcast,60,2012-12-05 12:53:00
9:53 AM,71.1,63.0,75,30.14,10.0,ENE,8.1,-,N/A,,Scattered Clouds,70,2012-12-05 14:53:00
10:53 AM,75.0,64.0,69,30.14,10.0,NE,6.9,-,N/A,,Mostly Cloudy,50,2012-12-05 15:53:00
11:53 AM,75.9,64.0,67,30.11,10.0,Variable,4.6,-,N/A,,Overcast,0,2012-12-05 16:53:00
12:53 PM,78.1,63.0,60,30.08,10.0,East,6.9,-,N/A,,Overcast,100,2012-12-05 17:53:00
1:53 PM,75.0,64.0,69,30.06,10.0,West,6.9,-,N/A,,Overcast,280,2012-12-05 18:53:00
2:53 PM,75.9,64.0,67,30.04,10.0,Variable,5.8,-,N/A,,Overcast,0,2012-12-05 19:53:00
3:53 PM,73.9,63.0,68,30.04,10.0,Calm,Calm,-,N/A,,Overcast,0,2012-12-05 20:53:00
4:53 PM,73.0,64.0,73,30.04,10.0,Calm,Calm,-,N/A,,Overcast,0,2012-12-05 21:53:00
5:53 PM,73.0,64.0,73,30.04,10.0,Calm,Calm,-,N/A,,Mostly Cloudy,0,2012-12-05 22:53:00
6:53 PM,71.1,64.0,78,30.03,10.0,NNE,4.6,-,N/A,,Mostly Cloudy,30,2012-12-05 23:53:00
7:53 PM,70.0,64.0,81,30.04,10.0,Calm,Calm,-,N/A,,Scattered Clouds,0,2012-12-06 00:53:00
8:53 PM,69.1,64.0,84,30.04,10.0,Calm,Calm,-,N/A,,Mostly Cloudy,0,2012-12-06 01:53:00
9:53 PM,68.0,64.0,87,30.04,10.0,North,3.5,-,N/A,,Mostly Cloudy,10,2012-12-06 02:53:00
10:53 PM,68.0,64.0,87,30.04,10.0,NE,3.5,-,N/A,,Overcast,40,2012-12-06 03:53:00
11:53 PM,68.0,64.0,87,30.04,10.0,Calm,Calm,-,N/A,,Overcast,0,2012-12-06 04:53:00